Weather History for Havre, MT

Change the Weather History Date:

Tuesday, January 8, 2013

  Actual Average Record
Temperature  
Mean Temperature 29 °F 17 °F  
Max Temperature 36 °F 28 °F 59 °F (2002)
Min Temperature 21 °F 6 °F -35 °F (1970)
Degree Days  
Heating Degree Days 36 48  
Month to date heating degree days 333 384  
Since 1 July heating degree days 3703 3850  
Cooling Degree Days 0 0  
Month to date cooling degree days 0 0  
Year to date cooling degree days 0 0  
Moisture  
Dew Point 24 °F    
Average Humidity 71    
Maximum Humidity 85    
Minimum Humidity 56    
Precipitation  
Precipitation 0.01 in 0.02 in 0.44 in (1971)
Month to date precipitation 0.19 0.11  
Year to date precipitation 0.19 0.11  
Snow  
Snow T in 0.30 in 10.80 in (1971)
Month to date snowfall 2.0 2.2  
Since 1 July snowfall 27.0 17.2  
Snow Depth 1.00 in    
Sea Level Pressure  
Sea Level Pressure 29.85 in    
Wind  
Wind Speed 10 mph (WNW)    
Max Wind Speed 29 mph    
Max Gust Speed 37 mph    
Visibility 8 miles    
Events Snow    
T = Trace of Precipitation, MM = Missing Value Source: NWS Daily Summary

Daily Weather History Graph

Daily Weather History Graph

Search for Another Location

Airport:

Trip Planner

Search our weather history database for the weather conditions in past years. The results will help you decide how hot, cold, wet, or windy it might be!

Date:

Astronomy

Jan. 08, 2013 Rise Set
Actual Time 8:09 AM MST 4:42 PM MST
Civil Twilight 7:33 AM MST 5:18 PM MST
Nautical Twilight 6:53 AM MST 5:58 PM MST
Astronomical Twilight 6:16 AM MST 6:36 PM MST
Moon 4:45 AM MST (1/8) 1:48 PM MST (1/8)
Length of Visible Light 9h 45m
Length of Day
8h 33m
Waning Crescent, 13% of the Moon is Illuminated
Jan 8
Waning Crescent
Jan 11
New
Jan 18
First Quarter
Jan 26
Full
Feb 3
Last Quarter

Hourly Weather History & Observations

Time (MST) Temp. Windchill Dew Point Humidity Pressure Visibility Wind Dir Wind Speed Gust Speed Precip Events Conditions
12:53 AM 33.1 °F 25.5 °F 26.1 °F 75% 29.60 in 10.0 mi WSW 9.2 mph - N/A   Mostly Cloudy
1:53 AM 32.0 °F 25.6 °F 25.0 °F 75% 29.62 in 10.0 mi SW 6.9 mph - N/A   Clear
2:53 AM 32.0 °F 25.6 °F 25.0 °F 75% 29.65 in 10.0 mi SW 6.9 mph - N/A   Partly Cloudy
3:53 AM 34.0 °F 26.6 °F 25.0 °F 70% 29.66 in 10.0 mi WNW 9.2 mph - N/A   Mostly Cloudy
4:53 AM 35.1 °F 27.9 °F 26.1 °F 70% 29.69 in 10.0 mi WNW 9.2 mph - N/A   Overcast
5:53 AM 35.1 °F 26.4 °F 27.0 °F 72% 29.71 in 10.0 mi NW 12.7 mph - 0.00 in   Overcast
6:53 AM 34.0 °F 24.6 °F 26.1 °F 73% 29.73 in 10.0 mi WNW 13.8 mph - N/A   Overcast
7:53 AM 35.1 °F 26.4 °F 27.0 °F 72% 29.77 in 10.0 mi WNW 12.7 mph - 0.00 in   Overcast
8:53 AM 33.1 °F 26.1 °F 26.1 °F 75% 29.82 in 10.0 mi WNW 8.1 mph - 0.00 in   Mostly Cloudy
9:15 AM 33.8 °F 21.9 °F 26.6 °F 75% 29.80 in 1.8 mi NNW 21.9 mph 27.6 mph 0.00 in Snow Light Snow
9:18 AM 33.8 °F 22.8 °F 28.4 °F 81% 29.79 in 1.0 mi NNW 18.4 mph 27.6 mph 0.00 in Snow Light Snow
9:32 AM 32.0 °F 20.1 °F 28.4 °F 87% 29.81 in 2.0 mi NNW 19.6 mph 31.1 mph 0.01 in Snow Light Snow
9:35 AM 32.0 °F 18.6 °F 28.4 °F 87% 29.81 in 3.0 mi NNW 25.3 mph 36.8 mph 0.01 in Snow Light Snow
9:46 AM 32.0 °F 19.5 °F 28.4 °F 87% 29.82 in 1.8 mi NNW 21.9 mph 34.5 mph 0.01 in Snow Light Snow
9:51 AM 32.0 °F 18.6 °F 28.4 °F 87% 29.82 in 0.8 mi NW 25.3 mph 33.4 mph 0.01 in Snow Light Snow
9:53 AM 32.0 °F 19.5 °F 28.9 °F 88% 29.89 in 0.8 mi NW 21.9 mph 33.4 mph 0.01 in Snow Light Snow
10:05 AM 32.0 °F 20.5 °F 28.4 °F 87% 29.82 in 1.5 mi NW 18.4 mph - 0.00 in Snow Light Snow
10:09 AM 32.0 °F 21.6 °F 28.4 °F 87% 29.82 in 3.0 mi WNW 15.0 mph 26.5 mph 0.00 in Snow Light Snow
10:24 AM 30.2 °F 18.5 °F 28.4 °F 93% 29.83 in 10.0 mi WNW 17.3 mph - 0.00 in   Overcast
10:53 AM 32.0 °F 22.1 °F 27.0 °F 82% 29.91 in 10.0 mi WNW 13.8 mph - 0.00 in   Overcast
11:53 AM 30.9 °F 27.5 °F 26.1 °F 82% 29.92 in 10.0 mi SW 3.5 mph - N/A   Mostly Cloudy
12:53 PM 33.1 °F 24.9 °F 21.0 °F 61% 29.93 in 10.0 mi West 10.4 mph - N/A   Mostly Cloudy
1:53 PM 34.0 °F 24.6 °F 21.9 °F 61% 29.95 in 10.0 mi West 13.8 mph - N/A   Clear
2:53 PM 35.1 °F 24.1 °F 23.0 °F 61% 29.98 in 10.0 mi West 19.6 mph - N/A   Clear
3:53 PM 35.1 °F 25.2 °F 21.9 °F 59% 29.98 in 10.0 mi West 16.1 mph - N/A   Clear
4:53 PM 28.9 °F 21.9 °F 18.0 °F 64% 30.00 in 10.0 mi NW 6.9 mph - N/A   Clear
5:53 PM 25.0 °F 17.1 °F 16.0 °F 69% 30.01 in 10.0 mi West 6.9 mph - N/A   Clear
6:53 PM 21.9 °F - 15.1 °F 75% 30.03 in 10.0 mi Calm Calm - N/A   Overcast
7:53 PM 21.9 °F 15.7 °F 15.1 °F 75% 30.00 in 10.0 mi ENE 4.6 mph - N/A   Scattered Clouds
8:53 PM 21.9 °F 15.7 °F 17.1 °F 82% 29.99 in 10.0 mi ESE 4.6 mph - N/A   Overcast
9:53 PM 21.2 °F 13.6 °F 17.6 °F 86% 29.87 in 10.0 mi East 5.8 mph - N/A   Scattered Clouds
10:53 PM 21.9 °F 15.7 °F 17.1 °F 82% 29.96 in 10.0 mi ENE 4.6 mph - N/A   Mostly Cloudy
11:53 PM 23.0 °F 12.4 °F 16.0 °F 74% 29.94 in 10.0 mi East 10.4 mph - N/A   Overcast